Dewpoint
-21 -20 -20 -18 -18 -18 -18 -18 -18 -18 -18 -18 -19 -19 -20 -21 -23 -24 -25 -24 -24 -23 -21 -21 -22 -20 -20 -22 -20 -19 -19 -17 -16 -17 -16 -15 -15 -15 -16 -17 -19 -21 -22
-21 -21 -21 -21 -20 -20 -19 -19 -19 -19 -19 -18 -18 -18 -18 -18 -19 -20 -22 -23 -24 -24 -24 -24 -24 -23 -23 -22 -22 -21 -20 -20 -19 -17 -18 -18 -18 -19 -21 -23 -25 -26 -27
-14 -14 -14 -14 -15 -17 -17 -17 -16 -16 -14 -14 -16 -18 -18 -18 -17 -17 -18 -19 -20 -21 -22 -24 -24 -25 -25 -25 -25 -25 -25 -25 -24 -24 -25 -25 -25 -25 -24 -23 -23 -23 -23
-8 -9 -10 -10 -11 -11 -12 -11 -9 -9 -9 -9 -10 -12 -15 -17 -18 -17 -17 -17 -17 -18 -18 -19 -20 -21 -21 -22 -22 -22 -21 -21 -21 -21 -20 -20 -20 -19 -19 -19 -18 -18 -17
-10 -9 -8 -7 -8 -8 -7 -7 -6 -6 -6 -6 -6 -7 -9 -11 -14 -15 -16 -17 -17 -17 -17 -17 -18 -18 -19 -19 -19 -19 -18 -18 -18 -17 -17 -17 -16 -16 -17 -17 -16 -16 -15
-19 -15 -11 -10 -9 -8 -8 -7 -7 -7 -7 -7 -7 -7 -7 -8 -9 -10 -11 -13 -15 -16 -16 -16 -17 -17 -17 -17 -17 -17 -18 -17 -17 -16 -16 -16 -16 -16 -16 -17 -17 -17 -16
-27 -25 -18 -14 -13 -12 -11 -10 -10 -9 -9 -8 -8 -8 -8 -8 -8 -9 -10 -11 -11 -12 -14 -16 -17 -17 -18 -18 -17 -17 -17 -17 -16 -16 -16 -16 -16 -17 -18 -18 -18 -18 -20
-27 -29 -28 -22 -16 -14 -13 -13 -13 -12 -12 -11 -11 -10 -9 -9 -9 -9 -9 -10 -11 -11 -12 -13 -16 -17 -18 -18 -18 -18 -17 -17 -16 -16 -16 -16 -17 -18 -17 -16 -20 -21 -21
-29 -29 -28 -28 -27 -21 -16 -14 -14 -14 -14 -14 -14 -14 -13 -13 -11 -10 -9 -9 -9 -11 -12 -12 -14 -16 -18 -19 -19 -19 -18 -17 -17 -16 -16 -16 -17 -18 -22 -23 -23 -21 -19
-29 -28 -27 -26 -26 -26 -26 -25 -23 -19 -17 -16 -15 -15 -15 -16 -15 -14 -13 -11 -10 -9 -10 -11 -12 -14 -17 -19 -20 -20 -20 -18 -17 -16 -15 -16 -17 -20 -24 -26 -27 -27 -25
-29 -28 -26 -25 -25 -24 -24 -24 -24 -24 -25 -25 -24 -22 -19 -18 -17 -16 -15 -14 -13 -12 -10 -10 -11 -12 -16 -18 -20 -19 -20 -19 -18 -16 -15 -17 -20 -23 -27 -29 -31 -32 -32
-28 -27 -26 -25 -24 -23 -23 -22 -22 -22 -23 -23 -23 -24 -24 -24 -23 -20 -17 -16 -15 -14 -13 -11 -10 -10 -13 -19 -19 -15 -20 -21 -19 -17 -17 -20 -23 -26 -29 -31 -33 -34 -35
-27 -26 -25 -24 -23 -22 -22 -22 -22 -21 -21 -21 -21 -22 -22 -22 -22 -21 -21 -20 -17 -13 -13 -14 -12 -9 -11 -16 -20 -13 -20 -20 -19 -17 -19 -22 -26 -29 -31 -32 -34 -35 -35
-26 -25 -24 -23 -22 -21 -21 -21 -21 -21 -21 -21 -21 -20 -20 -20 -20 -19 -19 -18 -19 -17 -16 -11 -10 -9 -9 -12 -15 -10 -14 -18 -16 -18 -21 -24 -28 -30 -32 -33 -33 -34 -35
-25 -24 -23 -22 -21 -21 -20 -21 -21 -21 -21 -21 -20 -17 -15 -14 -17 -16 -14 -14 -15 -15 -16 -16 -14 -10 -10 -10 -11 -15 -15 -14 -14 -16 -17 -20 -27 -30 -31 -32 -33 -33 -32
-24 -23 -22 -20 -20 -20 -20 -20 -21 -20 -20 -15 -14 -14 -13 -13 -13 -12 -12 -12 -11 -11 -11 -12 -15 -11 -10 -10 -10 -11 -12 -12 -13 -14 -18 -25 -29 -30 -31 -32 -31 -29 -28
-23 -21 -20 -19 -17 -18 -19 -19 -19 -22 -21 -21 -20 -15 -14 -14 -13 -12 -12 -12 -11 -11 -11 -10 -11 -11 -10 -10 -11 -11 -11 -11 -11 -13 -19 -28 -29 -29 -30 -27 -25 -24 -24
-22 -21 -18 -17 -17 -17 -18 -17 -16 -17 -20 -20 -20 -18 -18 -14 -14 -13 -13 -12 -12 -11 -11 -10 -11 -12 -10 -11 -11 -11 -11 -11 -12 -13 -21 -29 -28 -28 -25 -22 -21 -21 -21
-21 -20 -18 -17 -17 -18 -17 -17 -17 -19 -18 -18 -19 -18 -16 -15 -14 -14 -13 -12 -12 -12 -12 -11 -11 -12 -12 -11 -11 -11 -11 -11 -11 -13 -25 -27 -27 -25 -21 -19 -19 -19 -18
-21 -20 -18 -17 -17 -17 -17 -17 -19 -20 -19 -16 -16 -16 -16 -15 -14 -14 -13 -13 -13 -13 -12 -12 -11 -10 -12 -12 -10 -11 -12 -12 -13 -17 -27 -26 -26 -21 -19 -18 -18 -18 -18
-21 -20 -18 -18 -18 -17 -17 -17 -20 -20 -18 -16 -16 -15 -15 -14 -14 -14 -14 -13 -13 -12 -12 -12 -12 -11 -10 -11 -11 -12 -12 -13 -14 -23 -26 -25 -23 -19 -18 -18 -18 -17 -17
-21 -19 -18 -18 -17 -17 -17 -19 -19 -17 -17 -16 -16 -16 -15 -15 -15 -16 -16 -15 -14 -13 -12 -13 -13 -11 -11 -11 -11 -12 -13 -13 -15 -25 -24 -24 -21 -19 -18 -17 -17 -16 -16
-20 -18 -18 -18 -18 -18 -19 -20 -20 -18 -17 -17 -17 -17 -17 -16 -16 -17 -17 -16 -16 -15 -15 -14 -13 -12 -11 -11 -11 -12 -13 -15 -22 -26 -23 -22 -20 -19 -18 -17 -18 -16 -17
-19 -19 -19 -18 -18 -18 -20 -20 -21 -21 -22 -22 -22 -19 -18 -17 -17 -17 -17 -16 -15 -15 -15 -14 -13 -12 -11 -11 -12 -12 -17 -24 -26 -23 -20 -20 -19 -17 -17 -18 -16 -15 -19
-19 -19 -19 -18 -18 -18 -18 -19 -20 -22 -22 -23 -23 -23 -20 -18 -18 -17 -17 -16 -15 -15 -14 -13 -13 -12 -11 -12 -12 -16 -21 -26 -25 -23 -20 -19 -18 -18 -18 -16 -15 -17 -19
-19 -20 -19 -18 -18 -18 -18 -19 -21 -22 -23 -24 -24 -23 -20 -18 -18 -17 -17 -16 -15 -15 -14 -13 -13 -13 -12 -13 -17 -21 -24 -25 -24 -23 -20 -19 -18 -16 -16 -15 -17 -19 -17
Wind_Speed
5 5 5 6 6 6 6 7 7 6 5 5 4 5 4 4 4 5 5 6 6 6 7 7 8 9 9 11 12 12 13 13 15 17 15 15 18 19 20 21 22 23 23
5 6 5 5 5 5 5 5 5 5 5 4 3 3 3 4 5 5 5 5 5 5 6 6 6 7 8 8 10 10 10 11 12 12 14 16 17 18 20 20 21 21 21
4 5 5 5 5 5 5 5 6 5 5 4 4 4 4 4 3 3 4 4 4 5 6 6 6 6 7 7 7 8 8 9 10 11 13 13 14 16 16 16 16 16 17
3 3 3 4 5 5 5 6 5 5 4 4 4 4 4 4 4 4 4 4 4 4 4 4 5 5 6 6 6 7 7 7 7 7 8 10 12 13 14 14 15 15 16
3 4 5 5 6 6 7 7 6 6 5 5 4 4 4 4 4 5 5 4 4 5 5 5 5 6 6 6 6 7 7 7 8 7 8 10 11 13 15 16 18 19 17
7 7 8 8 8 9 9 9 9 9 9 9 9 8 8 7 7 7 8 7 7 8 8 7 7 7 8 8 8 9 8 8 8 9 9 11 12 15 16 17 18 19 17
10 11 11 12 12 12 12 12 12 13 13 14 14 14 14 13 12 12 13 13 12 12 12 12 11 11 10 10 10 10 10 10 11 11 13 13 15 16 19 19 19 19 20
10 12 14 15 15 15 15 14 14 14 15 15 15 15 15 15 16 16 17 17 17 17 16 16 15 14 13 13 12 11 12 12 13 13 14 15 16 18 18 19 20 22 22
11 12 13 15 17 19 19 19 19 18 18 18 17 17 17 16 17 17 18 19 20 20 19 18 18 17 16 15 15 14 13 14 14 15 16 17 18 18 19 19 19 19 18
13 13 14 15 16 17 18 20 21 22 23 23 22 22 21 20 19 18 18 19 20 21 22 21 20 19 18 17 16 16 15 15 16 16 17 16 17 18 18 18 17 17 16
15 15 15 15 16 16 16 17 18 19 21 22 23 24 25 25 24 22 21 21 21 21 22 22 22 20 19 18 17 17 16 16 17 15 16 16 16 17 17 17 17 17 17
16 16 15 15 15 15 15 15 16 16 17 18 19 21 21 23 25 24 25 25 24 23 23 22 22 22 20 20 19 18 18 18 16 15 15 15 15 15 15 16 17 16 17
18 17 16 16 15 15 14 14 14 15 16 16 16 17 18 18 20 21 23 25 26 25 25 25 23 21 21 22 21 21 21 19 17 16 15 14 15 15 15 15 15 16 16
19 18 17 16 15 14 14 14 14 14 15 16 15 16 16 16 16 16 17 20 22 25 27 24 22 20 21 22 22 22 23 17 16 16 16 16 16 15 14 14 14 14 14
20 18 16 16 14 14 15 15 15 15 16 16 15 15 17 17 15 14 16 16 17 17 20 25 26 22 21 23 27 28 24 21 19 16 16 17 16 15 14 13 13 13 12
20 17 16 15 14 14 14 14 14 15 15 16 17 18 18 19 19 17 16 16 17 17 18 21 25 24 26 29 29 27 25 22 20 18 18 17 16 14 13 11 10 10 11
18 16 15 14 12 12 12 12 13 12 14 15 16 16 17 18 18 18 17 17 18 18 22 23 25 23 25 29 31 29 25 22 21 19 18 17 15 13 10 8 8 8 10
17 16 13 11 11 11 11 11 11 12 13 13 12 14 16 16 16 16 17 17 19 20 25 26 27 25 26 25 28 30 29 25 23 20 19 17 15 12 9 7 6 8 10
17 16 15 13 11 12 11 10 11 13 14 15 14 11 11 12 14 15 15 17 19 21 23 23 24 28 28 26 24 25 28 26 23 21 20 17 15 12 9 6 6 9 11
17 16 15 12 13 12 11 11 13 14 14 13 13 12 11 11 11 11 11 14 16 19 23 23 21 28 27 24 25 22 26 26 24 22 20 18 16 13 9 7 7 9 11
14 15 15 14 12 12 12 13 13 14 13 12 11 11 11 12 14 14 14 14 14 15 17 24 23 24 25 23 24 21 23 23 22 21 20 18 17 13 9 7 8 9 12
13 13 14 14 14 13 12 11 10 10 10 11 11 11 11 11 13 14 15 15 16 16 16 20 24 20 23 21 22 20 20 20 20 21 20 19 17 14 10 8 8 10 12
11 12 13 12 12 11 10 7 6 6 8 9 11 12 12 12 13 15 16 16 17 18 18 18 18 21 19 20 21 21 17 17 18 19 19 18 17 13 11 10 10 11 12
10 11 12 13 12 11 10 10 10 10 11 11 11 12 13 14 14 15 15 16 16 17 19 19 17 19 19 18 21 20 17 17 17 18 18 17 14 12 11 10 10 11 12
13 12 12 14 14 13 12 12 13 15 16 17 16 15 15 14 14 14 15 15 16 16 16 17 17 18 17 20 19 16 16 18 18 18 17 16 13 12 11 10 11 11 11
7 10 10 10 12 14 14 16 17 19 19 18 17 15 14 14 14 13 14 14 15 14 13 14 13 17 21 20 17 16 16 16 16 16 16 14 13 10 9 9 10 10 11
Wind_Direction
172 175 174 174 176 177 177 174 175 178 176 177 178 180 179 189 198 201 201 213 216 211 224 221 221 234 236 235 241 240 240 238 246 248 256 252 255 262 270 276 281 284 286
172 175 180 184 185 184 184 183 188 183 183 184 186 193 192 193 194 195 200 208 217 221 228 232 224 226 236 241 246 247 246 245 246 248 254 260 267 272 277 278 280 285 289
165 176 181 188 197 201 197 199 203 202 201 201 204 212 213 215 211 206 210 214 220 221 228 236 240 236 243 242 246 248 248 251 248 251 262 268 270 273 276 282 284 284 287
168 181 187 187 188 193 199 202 201 199 199 208 222 229 230 230 232 234 238 233 236 236 239 240 245 242 244 251 252 256 258 257 260 263 268 277 282 286 292 296 296 298 298
226 220 217 219 219 215 212 214 216 219 223 230 238 245 255 255 250 244 245 250 254 257 258 259 255 256 254 248 250 256 263 268 275 280 285 289 293 296 301 306 308 308 310
253 243 237 234 234 238 241 240 239 241 245 249 255 258 260 259 261 262 264 264 261 261 264 263 266 268 271 273 273 270 267 266 274 282 285 288 294 302 306 310 312 315 320
270 259 250 245 245 246 248 251 254 257 256 255 256 256 257 259 259 260 262 263 263 264 263 262 261 263 263 267 272 278 285 288 288 289 293 295 300 303 306 307 307 305 305
274 266 260 256 255 254 255 256 258 258 258 259 260 259 258 257 257 257 259 261 264 264 264 265 265 264 265 264 267 271 274 278 282 285 289 293 298 300 301 300 305 307 308
285 275 267 261 259 258 259 261 261 262 262 262 261 261 261 259 259 258 257 257 258 261 262 260 260 260 261 263 264 266 269 273 278 281 286 291 294 295 295 299 304 305 310
290 282 276 272 268 266 264 262 263 264 264 263 263 264 262 261 259 259 258 258 257 257 256 259 259 258 258 257 261 264 269 274 281 287 294 294 295 294 294 294 294 298 303
286 281 277 275 274 273 271 270 269 268 268 267 266 264 263 263 259 257 257 259 259 259 258 258 260 259 258 259 259 262 264 269 277 284 290 293 293 291 292 293 295 295 294
284 278 273 271 269 270 270 271 272 273 273 273 273 272 269 265 264 259 256 256 258 261 258 258 257 259 253 251 251 253 264 269 277 282 285 287 289 290 291 291 292 293 295
278 276 271 268 267 268 269 270 272 275 277 277 277 277 276 272 268 265 261 257 255 255 260 261 258 254 252 248 247 249 255 259 264 271 276 279 283 287 290 292 295 297 299
272 269 267 265 263 265 267 269 270 272 276 279 280 283 283 279 275 273 267 262 258 255 254 253 258 256 251 247 243 234 249 256 259 265 271 277 283 285 287 290 294 298 303
265 262 260 260 258 259 262 266 271 274 273 273 276 285 288 285 281 276 271 268 266 265 262 253 248 245 244 239 237 241 247 250 256 259 267 273 276 280 284 290 295 303 310
258 256 254 254 255 256 261 267 271 278 278 272 272 272 278 284 290 290 282 276 267 268 275 268 254 242 239 241 246 244 244 248 250 259 263 264 267 271 275 282 293 306 316
252 250 248 248 250 253 261 272 282 276 281 280 279 275 273 275 275 271 271 272 265 260 253 255 260 257 246 247 246 246 246 248 249 257 260 258 259 261 263 272 292 311 324
246 243 242 246 244 249 258 269 282 294 299 294 284 283 282 280 278 273 272 270 265 252 245 255 258 255 253 254 253 246 241 243 247 254 254 250 248 245 245 258 288 315 327
244 239 235 234 241 250 259 269 280 291 296 298 297 288 291 283 282 279 274 263 260 256 252 248 260 257 254 254 255 249 239 240 244 250 245 240 235 230 231 247 291 318 328
242 237 229 238 252 254 251 267 283 290 291 293 292 290 290 290 294 289 282 278 272 264 252 249 254 257 258 257 249 246 230 233 239 239 234 228 223 219 226 255 294 313 322
242 234 224 233 244 251 255 268 280 286 288 293 296 289 292 291 288 283 280 281 285 275 256 249 260 253 253 256 241 236 226 229 234 233 228 222 217 216 230 258 291 307 317
236 228 225 235 245 243 251 265 275 279 283 294 301 303 294 281 290 298 295 283 273 278 266 258 256 257 246 250 237 226 219 229 231 225 219 216 213 218 237 263 282 303 312
226 221 224 231 230 233 238 251 277 291 294 298 302 306 304 298 296 297 296 293 279 267 266 266 258 241 243 239 231 216 229 236 230 222 216 213 213 224 247 262 275 297 304
236 232 231 233 229 236 244 256 269 282 293 305 313 309 304 301 300 300 297 296 290 280 266 257 254 237 232 223 218 215 224 215 214 211 210 211 218 228 241 261 272 290 298
238 240 239 235 234 242 256 269 280 285 287 288 292 301 304 302 300 301 302 297 294 283 266 251 247 226 218 206 202 211 212 208 207 208 208 212 216 227 240 258 275 282 291
238 222 229 237 242 253 266 276 283 287 287 284 279 281 293 297 300 301 304 301 300 283 258 244 226 188 183 186 192 199 202 205 205 206 206 208 210 221 243 256 270 275 291
Height
1501 1502 1503 1504 1505 1506 1507 1508 1509 1511 1511 1512 1513 1514 1512 1512 1513 1514 1513 1515 1515 1513 1517 1516 1516 1518 1518 1519 1521 1520 1521 1523 1525 1524 1526 1524 1525 1525 1524 1523 1523 1524 1523
1501 1502 1503 1504 1505 1506 1508 1508 1510 1510 1511 1512 1512 1512 1512 1514 1515 1514 1513 1514 1515 1513 1515 1516 1514 1515 1517 1517 1518 1518 1518 1520 1520 1521 1520 1522 1522 1521 1521 1520 1520 1519 1518
1501 1502 1503 1503 1504 1505 1506 1507 1509 1510 1510 1511 1512 1513 1514 1513 1513 1513 1514 1514 1514 1512 1514 1515 1514 1513 1516 1515 1515 1516 1516 1518 1518 1518 1518 1518 1518 1520 1518 1518 1517 1514 1514
1501 1502 1502 1503 1504 1505 1506 1507 1508 1508 1509 1510 1511 1512 1512 1513 1512 1512 1513 1513 1513 1512 1513 1513 1514 1514 1514 1515 1515 1515 1515 1516 1516 1515 1515 1516 1517 1517 1516 1513 1514 1510 1508
1500 1501 1501 1502 1503 1504 1506 1507 1507 1507 1508 1508 1509 1509 1510 1510 1510 1511 1512 1511 1511 1512 1512 1513 1513 1513 1513 1513 1513 1514 1516 1515 1515 1513 1513 1514 1514 1515 1512 1509 1507 1505 1501
1499 1500 1500 1501 1501 1502 1502 1503 1504 1505 1505 1506 1507 1507 1508 1509 1509 1509 1508 1508 1509 1510 1510 1511 1511 1511 1511 1510 1512 1513 1514 1513 1512 1512 1512 1512 1512 1510 1509 1506 1503 1500 1499
1496 1496 1497 1497 1498 1498 1499 1499 1499 1500 1500 1501 1502 1503 1504 1505 1505 1506 1507 1507 1508 1508 1509 1509 1508 1509 1509 1509 1510 1511 1510 1509 1509 1508 1508 1508 1506 1505 1503 1502 1500 1499 1496
1493 1493 1493 1493 1493 1494 1494 1495 1495 1496 1496 1496 1497 1498 1499 1499 1500 1501 1501 1501 1501 1502 1503 1503 1504 1504 1505 1506 1507 1507 1507 1506 1506 1505 1505 1504 1502 1502 1499 1499 1496 1494 1492
1490 1489 1489 1489 1489 1489 1489 1490 1490 1491 1491 1492 1492 1493 1493 1494 1495 1495 1495 1496 1496 1497 1497 1498 1499 1500 1502 1503 1504 1504 1504 1503 1502 1501 1501 1499 1498 1497 1497 1494 1493 1491 1488
1486 1485 1485 1484 1484 1484 1484 1484 1484 1484 1485 1485 1486 1486 1487 1488 1489 1490 1490 1490 1491 1493 1493 1493 1494 1496 1498 1498 1499 1499 1498 1498 1498 1497 1496 1495 1494 1494 1492 1492 1489 1489 1487
1482 1481 1481 1480 1479 1479 1479 1479 1479 1479 1479 1479 1479 1480 1480 1481 1482 1483 1484 1484 1485 1486 1486 1488 1488 1489 1490 1492 1493 1493 1494 1495 1494 1493 1492 1491 1491 1491 1490 1488 1486 1486 1485
1477 1477 1477 1476 1475 1475 1475 1474 1474 1474 1473 1473 1473 1473 1474 1474 1474 1475 1476 1477 1479 1479 1480 1481 1483 1484 1486 1487 1487 1488 1488 1489 1488 1488 1488 1489 1488 1487 1486 1486 1484 1482 1480
1472 1472 1472 1471 1471 1470 1470 1470 1470 1469 1469 1469 1469 1468 1468 1468 1467 1467 1468 1470 1472 1472 1473 1474 1475 1477 1479 1480 1481 1483 1483 1484 1485 1485 1485 1485 1484 1483 1482 1481 1480 1478 1476
1467 1467 1466 1466 1466 1466 1465 1465 1465 1465 1465 1464 1464 1464 1463 1463 1463 1463 1462 1463 1464 1465 1466 1467 1469 1471 1473 1474 1476 1478 1477 1479 1480 1481 1481 1480 1479 1479 1477 1477 1476 1473 1472
1461 1461 1461 1461 1462 1461 1461 1461 1460 1460 1460 1460 1460 1459 1458 1458 1458 1458 1458 1458 1459 1460 1460 1460 1462 1465 1467 1468 1468 1470 1472 1474 1475 1476 1476 1476 1475 1475 1474 1473 1472 1470 1469
1455 1456 1456 1457 1457 1457 1457 1456 1456 1455 1455 1455 1455 1456 1455 1454 1454 1454 1454 1454 1455 1456 1456 1454 1455 1458 1460 1461 1462 1464 1466 1469 1470 1471 1471 1471 1471 1471 1470 1469 1468 1467 1465
1449 1451 1451 1452 1452 1453 1453 1453 1452 1452 1450 1449 1449 1448 1448 1449 1449 1449 1449 1449 1449 1451 1450 1450 1450 1451 1453 1454 1456 1458 1461 1463 1465 1466 1466 1466 1466 1466 1466 1466 1465 1464 1462
1444 1445 1447 1448 1448 1449 1449 1449 1448 1447 1446 1445 1444 1443 1442 1442 1442 1443 1443 1443 1443 1443 1443 1444 1443 1445 1447 1448 1449 1451 1454 1456 1459 1460 1460 1461 1462 1463 1463 1463 1462 1461 1460
1438 1440 1442 1443 1444 1445 1445 1446 1445 1444 1443 1441 1440 1440 1438 1437 1436 1437 1437 1437 1436 1436 1437 1437 1438 1438 1439 1441 1443 1444 1447 1450 1452 1454 1455 1456 1458 1459 1459 1460 1459 1458 1457
1433 1435 1437 1439 1440 1440 1441 1441 1441 1440 1439 1438 1436 1435 1435 1434 1433 1432 1432 1431 1430 1429 1430 1431 1431 1431 1433 1435 1436 1438 1440 1443 1446 1448 1450 1452 1454 1455 1456 1457 1457 1456 1454
1428 1430 1432 1435 1436 1436 1437 1437 1437 1436 1434 1433 1432 1431 1431 1431 1430 1428 1427 1426 1424 1424 1424 1424 1425 1425 1427 1428 1430 1432 1435 1438 1440 1443 1445 1447 1450 1452 1453 1454 1453 1453 1452
1424 1426 1428 1429 1431 1432 1433 1433 1432 1432 1431 1430 1429 1427 1426 1426 1424 1423 1421 1420 1419 1419 1418 1418 1419 1420 1421 1423 1425 1427 1430 1433 1435 1437 1441 1444 1446 1449 1450 1451 1450 1450 1448
1420 1422 1424 1425 1427 1428 1429 1429 1429 1428 1427 1426 1425 1424 1422 1421 1420 1418 1416 1415 1414 1413 1413 1412 1412 1414 1415 1418 1420 1424 1427 1428 1431 1434 1437 1440 1443 1446 1447 1447 1447 1447 1445
1418 1419 1420 1421 1423 1424 1425 1425 1425 1424 1423 1422 1421 1420 1418 1417 1415 1413 1411 1409 1408 1407 1406 1407 1407 1408 1410 1413 1417 1420 1423 1425 1427 1431 1434 1437 1440 1442 1443 1444 1444 1443 1442
1414 1415 1416 1418 1419 1420 1421 1421 1420 1419 1419 1418 1417 1416 1414 1412 1411 1409 1407 1405 1403 1401 1401 1401 1401 1402 1405 1410 1414 1417 1419 1421 1425 1428 1431 1434 1437 1439 1440 1441 1441 1440 1439
1411 1412 1414 1415 1415 1416 1416 1416 1415 1414 1413 1412 1411 1411 1410 1408 1406 1405 1403 1401 1399 1396 1396 1396 1397 1399 1403 1407 1411 1415 1417 1420 1423 1426 1429 1432 1434 1436 1437 1438 1437 1437 1436